TIANMU-1 07

Last updated on Thu Nov 21 2024 00:02:20 GMT+0000 (Coordinated Universal Time)

1 57399U 23101A 24325.57491661 .00010901 00000+0 49681-3 0 9996 2 57399 97.3423 18.5128 0004840 20.8362 339.3070 15.20819058 74167
UTC large
Height (km)
Speed (km/s)
/
Latitude / Longitude
Inclination (degrees)
Orbital Period (minutes)
Azimuth
Elevation
Range (km)
Doppler Factor

Next 0 passes for location: London (51.5072 / 0.1276)

Sorry there are no passes over London.